• En Estados Unidos
  • Lista de países
  • Para 7 días
  • Temperatura del agua
  • Mapa Satelital
  • El tiempo en el mapa
  • Informadores
  • user-avatar
    Iniciar sesión

    Tiempo cada hora Baton-Ruzh

    Hoy, 24 Octubre, Miércoles

    Tiempo Temperatura Precipitaciones Viento Presión Humedad
    00:00 +18°C° 0 mm 3 mps 763 mmHg 94%
    01:00 +18°C° 0 mm 3 mps 763 mmHg 94%
    02:00 +18°C° 0 mm 3 mps 763 mmHg 93%
    03:00 +17°C° 0 mm 3 mps 763 mmHg 93%
    04:00 +17°C° 0 mm 3 mps 762 mmHg 92%
    05:00 +17°C° 0 mm 3 mps 762 mmHg 91%
    06:00 +17°C° 0 mm 3 mps 762 mmHg 91%
    07:00 +18°C° 0 mm 3 mps 763 mmHg 87%
    08:00 +18°C° 0 mm 4 mps 763 mmHg 83%
    09:00 +19°C° 0 mm 4 mps 763 mmHg 79%
    10:00 +20°C° 0 mm 3 mps 763 mmHg 78%
    11:00 +20°C° 0 mm 3 mps 762 mmHg 76%
    12:00 +21°C° 0 mm 3 mps 762 mmHg 75%
    13:00 +21°C° 0.1 mm 3 mps 762 mmHg 76%
    14:00 +21°C° 0.1 mm 3 mps 761 mmHg 76%
    15:00 +21°C° 0.1 mm 3 mps 760 mmHg 77%
    16:00 +21°C° 0.2 mm 3 mps 760 mmHg 79%
    17:00 +20°C° 0.2 mm 3 mps 760 mmHg 81%
    18:00 +20°C° 0.2 mm 3 mps 760 mmHg 83%
    19:00 +20°C° 0.3 mm 3 mps 760 mmHg 84%
    20:00 +19°C° 0.3 mm 3 mps 760 mmHg 85%
    21:00 +19°C° 0.3 mm 3 mps 760 mmHg 87%
    22:00 +19°C° 0.5 mm 3 mps 760 mmHg 89%
    23:00 +19°C° 0.5 mm 3 mps 759 mmHg 91%

    Mañana, 25 Octubre, Jueves

    Tiempo Temperatura Precipitaciones Viento Presión Humedad
    00:00 +19°C° 0.5 mm 3 mps 759 mmHg 93%
    01:00 +20°C° 0.5 mm 3 mps 758 mmHg 94%
    02:00 +20°C° 0.5 mm 3 mps 758 mmHg 95%
    03:00 +20°C° 0.5 mm 2 mps 757 mmHg 97%
    04:00 +21°C° 0.5 mm 2 mps 757 mmHg 97%
    05:00 +21°C° 0.5 mm 2 mps 756 mmHg 97%
    06:00 +21°C° 0.5 mm 2 mps 756 mmHg 98%
    07:00 +23°C° 1.4 mm 2 mps 756 mmHg 97%
    08:00 +23°C° 1.4 mm 2 mps 756 mmHg 97%
    09:00 +24°C° 1.4 mm 2 mps 756 mmHg 96%
    10:00 +24°C° 0.9 mm 3 mps 756 mmHg 93%
    11:00 +24°C° 0.9 mm 3 mps 756 mmHg 90%
    12:00 +25°C° 0.9 mm 3 mps 755 mmHg 87%
    13:00 +25°C° 0.2 mm 4 mps 755 mmHg 85%
    14:00 +25°C° 0.2 mm 4 mps 754 mmHg 82%
    15:00 +25°C° 0.2 mm 4 mps 754 mmHg 79%
    16:00 +23°C° 0 mm 4 mps 754 mmHg 81%
    17:00 +21°C° 0 mm 4 mps 755 mmHg 82%
    18:00 +20°C° 0 mm 3 mps 755 mmHg 84%
    19:00 +19°C° 0 mm 3 mps 755 mmHg 84%
    20:00 +19°C° 0 mm 3 mps 756 mmHg 85%
    21:00 +18°C° 0 mm 3 mps 757 mmHg 85%
    22:00 +18°C° 0 mm 3 mps 757 mmHg 85%
    23:00 +17°C° 0 mm 3 mps 757 mmHg 85%

    Pasado mañana, 26 Octubre, Viernes

    Tiempo Temperatura Precipitaciones Viento Presión Humedad
    00:00 +17°C° 0 mm 3 mps 757 mmHg 85%
    01:00 +17°C° 0 mm 3 mps 757 mmHg 85%
    02:00 +17°C° 0 mm 3 mps 757 mmHg 85%
    03:00 +16°C° 0 mm 3 mps 757 mmHg 86%
    04:00 +16°C° 0 mm 3 mps 757 mmHg 85%
    05:00 +16°C° 0 mm 3 mps 757 mmHg 85%
    06:00 +16°C° 0 mm 3 mps 757 mmHg 85%
    07:00 +16°C° 0 mm 3 mps 758 mmHg 84%
    08:00 +17°C° 0 mm 3 mps 758 mmHg 84%
    09:00 +17°C° 0 mm 3 mps 759 mmHg 83%
    10:00 +17°C° 0 mm 3 mps 759 mmHg 80%
    11:00 +18°C° 0 mm 3 mps 758 mmHg 77%
    12:00 +18°C° 0 mm 3 mps 758 mmHg 75%
    13:00 +19°C° 0 mm 3 mps 758 mmHg 73%
    14:00 +20°C° 0 mm 3 mps 757 mmHg 71%
    15:00 +20°C° 0 mm 2 mps 757 mmHg 69%
    16:00 +19°C° 0 mm 2 mps 757 mmHg 72%
    17:00 +19°C° 0 mm 1 mps 757 mmHg 76%
    18:00 +18°C° 0 mm 1 mps 758 mmHg 79%
    19:00 +18°C° 0 mm 1 mps 758 mmHg 79%
    20:00 +18°C° 0 mm 1 mps 759 mmHg 79%
    21:00 +18°C° 0 mm 1 mps 759 mmHg 79%
    22:00 +18°C° 0 mm 1 mps 759 mmHg 81%
    23:00 +16°C° 0 mm 1 mps 759 mmHg 84%

    27 Octubre, Sábado

    Tiempo Temperatura Precipitaciones Viento Presión Humedad
    00:00 +16°C° 0 mm 1 mps 759 mmHg 86%
    01:00 +15°C° 0 mm 1 mps 759 mmHg 88%
    02:00 +15°C° 0 mm 1 mps 759 mmHg 90%
    03:00 +14°C° 0 mm 1 mps 759 mmHg 92%
    04:00 +14°C° 0 mm 1 mps 759 mmHg 93%
    05:00 +14°C° 0 mm 1 mps 759 mmHg 93%
    06:00 +12°C° 0 mm 0 mps 759 mmHg 93%
    07:00 +15°C° 0 mm 1 mps 760 mmHg 86%
    08:00 +18°C° 0 mm 1 mps 760 mmHg 79%
    09:00 +20°C° 0 mm 1 mps 761 mmHg 72%
    10:00 +21°C° 0 mm 2 mps 761 mmHg 67%
    11:00 +23°C° 0 mm 2 mps 760 mmHg 62%
    12:00 +25°C° 0 mm 2 mps 760 mmHg 56%
    13:00 +25°C° 0 mm 3 mps 759 mmHg 56%
    14:00 +25°C° 0 mm 3 mps 759 mmHg 55%
    15:00 +26°C° 0 mm 3 mps 758 mmHg 55%
    16:00 +24°C° 0 mm 2 mps 759 mmHg 61%
    17:00 +21°C° 0 mm 2 mps 759 mmHg 68%
    18:00 +21°C° 0 mm 1 mps 759 mmHg 74%
    19:00 +20°C° 0 mm 1 mps 759 mmHg 78%
    20:00 +19°C° 0 mm 1 mps 760 mmHg 81%
    21:00 +18°C° 0 mm 1 mps 760 mmHg 85%
    22:00 +18°C° 0 mm 1 mps 760 mmHg 87%
    23:00 +18°C° 0 mm 1 mps 760 mmHg 89%

    28 Octubre, Domingo

    Tiempo Temperatura Precipitaciones Viento Presión Humedad
    00:00 +16°C° 0 mm 1 mps 760 mmHg 91%
    01:00 +16°C° 0 mm 1 mps 760 mmHg 92%
    02:00 +15°C° 0 mm 1 mps 760 mmHg 93%
    03:00 +15°C° 0 mm 1 mps 760 mmHg 94%
    04:00 +15°C° 0 mm 1 mps 760 mmHg 94%
    05:00 +15°C° 0 mm 1 mps 761 mmHg 95%
    06:00 +14°C° 0 mm 1 mps 761 mmHg 95%
    07:00 +16°C° 0 mm 1 mps 761 mmHg 88%
    08:00 +19°C° 0 mm 1 mps 762 mmHg 81%
    09:00 +22°C° 0 mm 1 mps 762 mmHg 74%
    10:00 +23°C° 0 mm 1 mps 761 mmHg 67%
    11:00 +25°C° 0 mm 1 mps 761 mmHg 61%
    12:00 +27°C° 0 mm 2 mps 761 mmHg 55%
    13:00 +27°C° 0 mm 2 mps 760 mmHg 55%
    14:00 +28°C° 0 mm 2 mps 760 mmHg 56%
    15:00 +28°C° 0 mm 2 mps 759 mmHg 57%
    16:00 +26°C° 0 mm 2 mps 759 mmHg 64%
    17:00 +25°C° 0 mm 2 mps 759 mmHg 72%
    18:00 +23°C° 0 mm 2 mps 760 mmHg 79%
    19:00 +21°C° 0.2 mm 2 mps 760 mmHg 81%
    20:00 +21°C° 0.2 mm 2 mps 760 mmHg 84%
    21:00 +20°C° 0.2 mm 2 mps 761 mmHg 86%
    22:00 +20°C° 0 mm 2 mps 761 mmHg 88%
    23:00 +20°C° 0 mm 3 mps 761 mmHg 89%

    29 Octubre, Lunes

    Tiempo Temperatura Precipitaciones Viento Presión Humedad
    00:00 +19°C° 0 mm 3 mps 761 mmHg 90%
    01:00 +18°C° 0 mm 3 mps 761 mmHg 87%
    02:00 +17°C° 0 mm 3 mps 761 mmHg 83%
    03:00 +16°C° 0 mm 3 mps 762 mmHg 80%
    04:00 +14°C° 0 mm 3 mps 762 mmHg 78%
    05:00 +13°C° 0 mm 3 mps 763 mmHg 76%
    06:00 +12°C° 0 mm 3 mps 763 mmHg 75%
    07:00 +13°C° 0 mm 3 mps 763 mmHg 70%
    08:00 +14°C° 0 mm 4 mps 764 mmHg 65%
    09:00 +15°C° 0 mm 4 mps 764 mmHg 60%
    10:00 +16°C° 0 mm 5 mps 764 mmHg 57%
    11:00 +17°C° 0 mm 5 mps 764 mmHg 53%
    12:00 +19°C° 0 mm 5 mps 763 mmHg 49%
    13:00 +20°C° 0 mm 5 mps 763 mmHg 49%
    14:00 +20°C° 0 mm 5 mps 763 mmHg 49%
    15:00 +20°C° 0 mm 4 mps 762 mmHg 49%
    16:00 +18°C° 0 mm 4 mps 763 mmHg 54%
    17:00 +17°C° 0 mm 3 mps 763 mmHg 59%
    18:00 +15°C° 0 mm 2 mps 763 mmHg 65%
    19:00 +15°C° 0 mm 2 mps 764 mmHg 67%
    20:00 +14°C° 0 mm 2 mps 765 mmHg 70%
    21:00 +13°C° 0 mm 2 mps 765 mmHg 72%
    22:00 +13°C° 0 mm 2 mps 765 mmHg 74%
    23:00 +12°C° 0 mm 2 mps 765 mmHg 77%

    30 Octubre, Martes

    Tiempo Temperatura Precipitaciones Viento Presión Humedad
    00:00 +12°C° 0 mm 2 mps 765 mmHg 79%
    01:00 +10°C° 0 mm 2 mps 766 mmHg 80%
    02:00 +10°C° 0 mm 2 mps 766 mmHg 82%
    03:00 +10°C° 0 mm 1 mps 766 mmHg 84%
    04:00 +10°C° 0 mm 1 mps 766 mmHg 85%
    05:00 +10°C° 0 mm 1 mps 766 mmHg 86%
    06:00 +9°C° 0 mm 1 mps 766 mmHg 87%
    07:00 +10°C° 0 mm 2 mps 767 mmHg 79%
    08:00 +13°C° 0 mm 2 mps 767 mmHg 71%
    09:00 +14°C° 0 mm 2 mps 768 mmHg 64%
    10:00 +16°C° 0 mm 2 mps 767 mmHg 59%
    11:00 +17°C° 0 mm 2 mps 767 mmHg 54%
    12:00 +18°C° 0 mm 2 mps 767 mmHg 49%
    13:00 +19°C° 0 mm 2 mps 766 mmHg 48%
    14:00 +19°C° 0 mm 2 mps 766 mmHg 48%
    15:00 +19°C° 0 mm 2 mps 765 mmHg 47%
    16:00 +18°C° 0 mm 2 mps 765 mmHg 53%
    17:00 +16°C° 0 mm 1 mps 765 mmHg 59%
    18:00 +14°C° 0 mm 1 mps 766 mmHg 65%
    19:00 +13°C° 0 mm 1 mps 766 mmHg 68%
    20:00 +13°C° 0 mm 1 mps 766 mmHg 71%
    21:00 +12°C° 0 mm 1 mps 766 mmHg 74%
    22:00 +12°C° 0 mm 1 mps 766 mmHg 76%
    23:00 +11°C° 0 mm 1 mps 766 mmHg 78%
    Mostrar más